OpenBCM V1.13 (Linux)

Packet Radio Mailbox

DB0FHN

[JN59NK Nuernberg]

 Login: GUEST





  
UR7IWZ > KEPS     21.02.03 14:14l 277 Lines 7266 Bytes #999 (0) @ AMSAT
BID : ORB03051.D
Read: DB0FHN GUEST
Subj: Orbital Elements  03051.MICROS
Path: DB0FHN<DB0ZWI<DB0HST<ON0DXC<WA7V<RZ6HXA<UR7IWZ
Sent: 030221/0820Z @:UR7IWZ.DON.UKR.EU #:64992 XFBB7.04 Bid:ORB03051.D
From: UR7IWZ@UR7IWZ.DON.UKR.EU
To  : KEPS@AMSAT


HR AMSAT ORBITAL ELEMENTS FOR THE MICROSATS
FROM WA5QGD FORT WORTH,TX February 20, 2003
SEND SUBSCRIBE/UNSUBSCRIBE TO majordomo@amsat.org ONLY
BID: ORB03051.D
TO ALL RADIO AMATEURS BT

Satellite: UO-14
Catalog number: 20437
Epoch time:      03050.75711020
Element set:     168
Inclination:       98.2732 deg
RA of node:        94.3145 deg
Eccentricity:    0.0010159
Arg of perigee:   195.0038 deg
Mean anomaly:     165.0846 deg
Mean motion:   14.31238955 rev/day
Decay rate:       1.68e-06 rev/day^2
Epoch rev:           68266
Checksum:              290

Satellite: AO-16
Catalog number: 20439
Epoch time:      03051.19121055
Element set:     854
Inclination:       98.3168 deg
RA of node:       106.4206 deg
Eccentricity:    0.0010381
Arg of perigee:   200.4598 deg
Mean anomaly:     159.6166 deg
Mean motion:   14.31473507 rev/day
Decay rate:       2.16e-06 rev/day^2
Epoch rev:           68276
Checksum:              287

Satellite: WO-18
Catalog number: 20441
Epoch time:      03051.24180961
Element set:      16
Inclination:       98.3335 deg
RA of node:       109.5759 deg
Eccentricity:    0.0011190
Arg of perigee:   199.6931 deg
Mean anomaly:     160.3822 deg
Mean motion:   14.31554947 rev/day
Decay rate:       1.90e-06 rev/day^2
Epoch rev:           68282
Checksum:              295

Satellite: LO-19
Catalog number: 20442
Epoch time:      03050.73083583
Element set:     967
Inclination:       98.3445 deg
RA of node:       112.1108 deg
Eccentricity:    0.0011396
Arg of perigee:   201.0439 deg
Mean anomaly:     159.0276 deg
Mean motion:   14.31718110 rev/day
Decay rate:       2.08e-06 rev/day^2
Epoch rev:           68280
Checksum:              276

Satellite: UO-22
Catalog number: 21575
Epoch time:      03051.38500422
Element set:     730
Inclination:       98.1408 deg
RA of node:        43.4140 deg
Eccentricity:    0.0008242
Arg of perigee:   122.8069 deg
Mean anomaly:     237.3914 deg
Mean motion:   14.39157672 rev/day
Decay rate:       4.15e-06 rev/day^2
Epoch rev:           60854
Checksum:              274

Satellite: KO-23
Catalog number: 22077
Epoch time:      03049.95635298
Element set:    0213
Inclination:      066.0872 deg
RA of node:       124.9187 deg
Eccentricity:    0.0015562
Arg of perigee:   273.5841 deg
Mean anomaly:     086.3395 deg
Mean motion:   12.86408451 rev/day
Decay rate:       -3.7e-07 rev/day^2
Epoch rev:           49435
Checksum:              322

Satellite: AO-27
Catalog number: 22825
Epoch time:      03050.87289159
Element set:     490
Inclination:       98.2748 deg
RA of node:        80.5031 deg
Eccentricity:    0.0007446
Arg of perigee:   254.5614 deg
Mean anomaly:     105.4748 deg
Mean motion:   14.28944338 rev/day
Decay rate:       1.84e-06 rev/day^2
Epoch rev:           49006
Checksum:              318

Satellite: IO-26
Catalog number: 22826
Epoch time:      03051.60307552
Element set:     313
Inclination:       98.2754 deg
RA of node:        82.3140 deg
Eccentricity:    0.0008081
Arg of perigee:   253.9630 deg
Mean anomaly:     106.0658 deg
Mean motion:   14.29167789 rev/day
Decay rate:       2.00e-06 rev/day^2
Epoch rev:           49021
Checksum:              278

Satellite: KO-25
Catalog number: 22828
Epoch time:      03051.65290853
Element set:     430
Inclination:       98.2711 deg
RA of node:        82.6236 deg
Eccentricity:    0.0009113
Arg of perigee:   229.8362 deg
Mean anomaly:     130.2023 deg
Mean motion:   14.29509495 rev/day
Decay rate:       1.62e-06 rev/day^2
Epoch rev:           45842
Checksum:              285

Satellite: TO-31
Catalog number: 25396
Epoch time:      03050.51986494
Element set:     824
Inclination:       98.6274 deg
RA of node:       127.6098 deg
Eccentricity:    0.0003770
Arg of perigee:   124.1545 deg
Mean anomaly:     235.9993 deg
Mean motion:   14.23511162 rev/day
Decay rate:       -4.3e-07 rev/day^2
Epoch rev:           23966
Checksum:              316

Satellite: GO-32
Catalog number: 25397
Epoch time:      03049.97952289
Element set:    0140
Inclination:      098.6224 deg
RA of node:       125.9592 deg
Eccentricity:    0.0002080
Arg of perigee:   127.9193 deg
Mean anomaly:     232.2176 deg
Mean motion:   14.22960239 rev/day
Decay rate:        9.1e-07 rev/day^2
Epoch rev:           23955
Checksum:              315

Satellite: UO-36
Catalog number: 25693
Epoch time:      03051.85317099
Element set:     721
Inclination:       64.5611 deg
RA of node:         3.7942 deg
Eccentricity:    0.0020648
Arg of perigee:   316.0194 deg
Mean anomaly:      43.9253 deg
Mean motion:   14.76395373 rev/day
Decay rate:       6.91e-06 rev/day^2
Epoch rev:           20659
Checksum:              309

Satellite: AO-37
Catalog number: 26065
Epoch time:      03051.88190447
Element set:     738
Inclination:      100.2107 deg
RA of node:       107.0305 deg
Eccentricity:    0.0036918
Arg of perigee:   281.5453 deg
Mean anomaly:      78.1581 deg
Mean motion:   14.35510984 rev/day
Decay rate:       2.18e-06 rev/day^2
Epoch rev:           16071
Checksum:              285

Satellite: SO-41
Catalog number: 26545
Epoch time:      03051.03336480
Element set:     414
Inclination:       64.5589 deg
RA of node:        27.4201 deg
Eccentricity:    0.0052013
Arg of perigee:   238.4877 deg
Mean anomaly:     121.1083 deg
Mean motion:   14.78989248 rev/day
Decay rate:      1.087e-05 rev/day^2
Epoch rev:           12943
Checksum:              295

Satellite: MO-46
Catalog number: 26548
Epoch time:      03050.04093145
Element set:     417
Inclination:       64.5581 deg
RA of node:        23.3546 deg
Eccentricity:    0.0045278
Arg of perigee:   238.0922 deg
Mean anomaly:     121.5724 deg
Mean motion:   14.81278907 rev/day
Decay rate:      1.754e-05 rev/day^2
Epoch rev:           12943
Checksum:              299

Satellite: SO-42
Catalog number: 26549
Epoch time:      03050.46150439
Element set:     696
Inclination:       64.5512 deg
RA of node:        33.2956 deg
Eccentricity:    0.0056463
Arg of perigee:   238.8778 deg
Mean anomaly:     120.6775 deg
Mean motion:   14.77926519 rev/day
Decay rate:      1.422e-05 rev/day^2
Epoch rev:           12927
Checksum:              329

Satellite: NO-44
Catalog number: 26931
Epoch time:      03051.20482476
Element set:     406
Inclination:       67.0472 deg
RA of node:       251.4028 deg
Eccentricity:    0.0005007
Arg of perigee:   267.0283 deg
Mean anomaly:      93.0245 deg
Mean motion:   14.29116961 rev/day
Decay rate:       2.19e-06 rev/day^2
Epoch rev:            7258
Checksum:              276

Satellite: AO-49
Catalog number: 27605
Epoch time:      03050.93938975
Element set:      63
Inclination:       64.5519 deg
RA of node:       193.0741 deg
Eccentricity:    0.0035714
Arg of perigee:   113.1672 deg
Mean anomaly:     247.3195 deg
Mean motion:   14.71379641 rev/day
Decay rate:      1.427e-05 rev/day^2
Epoch rev:             901
Checksum:              306

Satellite: SO-50
Catalog number: 27607
Epoch time:      03051.88773367
Element set:      57
Inclination:       64.5506 deg
RA of node:       190.6513 deg
Eccentricity:    0.0037324
Arg of perigee:   109.2094 deg
Mean anomaly:     251.3048 deg
Mean motion:   14.69913654 rev/day
Decay rate:      1.340e-05 rev/day^2
Epoch rev:             914
Checksum:              294



Read previous mail | Read next mail


 21.06.2026 12:34:43lGo back Go up